Regional Weather Roundup
Issued by NWS

Home | Current Version | Previous Version | Graphics & Text | Print | Product List | Glossary On
Versions: 1 2 3 4 5 6 7 8 9 10 11 12 13 14 15 16 17 18 19 20 21 22 23 24 25 26 27 28 29 30 31 32 33 34 35 36 37 38 39 40 41 42 43 44 45 46 47 48 49 50
000
ASUS43 KLOT 260206
RWRIL

ILLINOIS REGIONAL WEATHER ROUNDUP
NATIONAL WEATHER SERVICE CHICAGO/ROMEOVILLE IL
800 PM CST SUN JAN 25 2015

NOTE: "FAIR" INDICATES FEW OR NO CLOUDS BELOW 12,000 FEET WITH NO
SIGNIFICANT WEATHER AND/OR OBSTRUCTIONS TO VISIBILITY.

* THESE STATIONS ARE NOT UNDER NWS QUALITY CONTROL. THEY ALSO MAY NOT
  REPORT WEATHER SUCH AS PRECIPITATION OR FOG.

ILZ001-002-007-009-015-016-024-260300-
NORTHWEST ILLINOIS

CITY           SKY/WX    TMP DP  RH WIND       PRES   REMARKS
MOLINE         CLEAR     23  15  71 N6        30.03R WCI  16
STERLING*      CLEAR     21  12  68 NE8       30.03R WCI  12
SAVANNA*       CLEAR     21  13  71 N7        30.04R WCI  13
$$

ILZ003-004-008-010-011-017-018-260300-
NORTH CENTRAL ILLINOIS

CITY           SKY/WX    TMP DP  RH WIND       PRES   REMARKS
ROCKFORD       CLEAR     21  10  62 N12       30.04R WCI   9
FREEPORT*      CLEAR     19  13  78 N8        30.05R WCI   8
ROCHELLE*      CLEAR     21  14  75 N13       30.01R WCI   8
DE KALB*       PTCLDY    20  14  78 N10       29.99S WCI   9
PERU*          PTCLDY    24  19  80 N14       30.00R WCI  12
$$

ILZ005-006-012>014-019>023-260300-
NORTHEAST ILLINOIS

CITY           SKY/WX    TMP DP  RH WIND       PRES   REMARKS
CHICAGO-OHARE  PTCLDY    26  16  65 NE10      29.97R WCI  16
CHICAGO-MIDWAY MOCLDY    28  18  66 NE16      29.96R WCI  16
AURORA         CLOUDY    26  15  63 N17G23    29.98R WCI  13
LANSING*       CLOUDY    27  21  77 NE10G17   29.94F WCI  17
JOLIET*        CLOUDY    27  18  69 N12       29.97R WCI  17
WAUKEGAN       PTCLDY    24  14  65 N8        29.99R WCI  15
DUPAGE AIRPORT MOCLDY    22  14  71 N13       29.96R WCI  10
KANKAKEE*      MIX PCPN  28  24  84 NE15G21   29.93F WCI  16
WHEELING       CLEAR     26  14  60 NE13      30.00R WCI  15
MORRIS*        CLOUDY    27  22  82 N8        29.96R WCI  19
ROMEOVILLE*    MOCLDY    27  19  71 NE16      29.96R WCI  14
NORTHERLY ISL    N/A     27  19  72 NE21        N/A  WCI  13
$$

LMZ740>746-260300-
SOUTHERN LAKE MICHIGAN

STATION/POSITION SKY/WX   TEMP    WIND        PRES    VSBY  WAVE
                          AIR SEA DIR/SP/G                  HT/PER
                          (F)     (DEG/KT/KT) (MB)    (MI)  (FT/S)
WAUKEGAN HARBOR            27      40/ 21/ 24   N/A
HARRISON CRIB              27      40/ 20/ 25   N/A
BURNHAM HARBOR             27      30/ 15/ 20   N/A
CALUMET HARBOR             27      30/ 18/ 22   N/A
MICHIGAN CITY              25      20/ 18/ 20   N/A
$$

ILZ025>027-034>036-040-047-049-050-058-095>099-260300-
WEST-CENTRAL ILLINOIS

CITY           SKY/WX    TMP DP  RH WIND       PRES   REMARKS
QUINCY         CLOUDY    29  24  82 N13       30.01R WCI  19
GALESBURG*     CLEAR     24  19  80 N9        30.01R WCI  14
MACOMB*        PTCLDY    27  21  77 N14       30.03S WCI  16
JACKSONVILLE*  CLOUDY    32  25  74 N20G25    29.97R WCI  20
PITTSFIELD*    CLOUDY    31  26  79 N16G23    30.00R WCI  20
$$

ILZ028>032-037-038-041>044-048-051>054-059>061-260300-
CENTRAL ILLINOIS

CITY           SKY/WX    TMP DP  RH WIND       PRES   REMARKS
PONTIAC        CLOUDY    29  24  81 N15       29.95R WCI  18
BLOOMINGTON    CLOUDY    28  25  89 N18       29.93R WCI  15
DECATUR        CLOUDY    31  30  96 N24G31    29.90R WCI  17
PEORIA         MOCLDY    28  19  69 N10G17    29.98R WCI  19
LACON*         PTCLDY    25  18  74 N9        30.00R WCI  15
LINCOLN*       CLOUDY    32  27  81 N16G23    29.96R WCI  21
SPRINGFIELD    CLOUDY    31  25  78 N15G24    29.95R WCI  20
TAYLORVILLE    CLOUDY    32  28  86 N21G29    29.92R WCI  20
$$

ILZ033-039-045-046-055>057-062-063-260300-
EAST-CENTRAL ILLINOIS

CITY           SKY/WX    TMP DP  RH WIND       PRES   REMARKS
CHAMPAIGN      FLURRIES  31  27  85 N17G24    29.88R WCI  19
DANVILLE*      CLOUDY    28  25  89 NE16G25   29.85R WCI  16
RANTOUL*       CLOUDY    31  28  88 N21       29.90R WCI  19
MATTOON        CLOUDY    30  27  88 N23G35    29.84R WCI  17
PARIS*         CLOUDY    30  28  92 NE13G22   29.85R WCI  20
$$

ILZ079-100>102-260300-
SOUTHWEST ILLINOIS

CITY           SKY/WX    TMP DP  RH WIND       PRES   REMARKS
BELLEVILLE     LGT RAIN  34  32  93 N16G24    29.90R WCI  23
CAHOKIA*       CLOUDY    35  32  88 N15G26    29.93R WCI  25
SPARTA*        CLOUDY    35  33  93 N22G30    29.88R WCI  23
$$

ILZ064>066-069>071-074>076-080>082-084>086-088>090-092>094-260300-
SOUTH-CENTRAL ILLINOIS

CITY           SKY/WX    TMP DP  RH WIND       PRES   REMARKS
CARBONDALE     CLOUDY    37  35  92 N18G25    29.83R FOG     WCI  27
CAIRO*         DRIZZLE   44  43  97 NW22G28   29.80R
EFFINGHAM*     CLOUDY    32  28  85 N15G25    29.85R WCI  22
MARION         CLOUDY    39  36  87 NW12G22   29.82R FOG     WCI  32
MT. VERNON     CLOUDY    36  30  80 N8G25     29.82R WCI  29
CENTRALIA*     CLOUDY    35  31  87 N18G29    29.84R WCI  24
SALEM*         CLOUDY    36  32  85 N22G29    29.84R WCI  25
METROPOLIS*    CLOUDY    43  43 100 NW18      29.76R
$$

ILZ067-068-072-073-078-083-087-091-260300-
SOUTHEAST ILLINOIS

CITY           SKY/WX    TMP DP  RH WIND       PRES   REMARKS
LAWRENCEVILLE  CLOUDY    37  36  96 N20G28    29.76R FOG     WCI  27
FLORA*         CLOUDY    33  32  94 N22G35    29.82R WCI  21
FAIRFIELD*     CLOUDY    37  35  96 N18       29.78R FOG     WCI  26
HARRISBURG*    CLOUDY    40  40  99 NW16G22   29.78R
ROBINSON*      CLOUDY    33  32  96 N22       29.78R WCI  21
CARMI*         CLOUDY    41  41 100 NW17      29.75R
$$

ABBREVIATIONS USED IN REMARKS
   TC - TEMPERATURE IN CELSIUS
  WCI - WIND CHILL INDEX
   HX - HEAT INDEX
  VSB - VISIBILITY
$$




USA.gov is the U.S. government's official web portal to all federal, state and local government web resources and services.